Total_Precipitation_Accumulation
0.37 0.34 0.29 0.29 0.33 0.37 0.44 0.52 0.59 0.76 0.88 0.96 1.07 1.24 1.40 1.57 1.73 1.83 1.71 1.55 1.52 1.69 1.84 1.78 1.87 1.88 1.76 1.78 1.84 1.89 1.86 1.65 1.50 1.55 1.44 1.15 0.90 0.96 0.92 0.87 0.90 0.95 1.06
0.26 0.22 0.19 0.20 0.23 0.26 0.30 0.38 0.47 0.54 0.67 0.85 1.10 1.31 1.58 1.66 1.74 1.86 1.89 1.81 1.74 1.92 1.97 2.05 2.15 2.19 2.19 2.14 2.04 2.17 2.32 2.04 1.77 1.88 2.16 1.77 1.36 0.98 0.77 0.83 0.87 0.96 1.20
0.19 0.15 0.14 0.17 0.21 0.21 0.22 0.30 0.42 0.54 0.76 1.00 1.33 1.62 1.88 1.96 2.00 1.94 1.96 2.02 2.07 2.16 2.19 2.23 2.30 2.32 2.17 2.18 2.29 2.43 2.77 2.57 2.19 1.98 2.24 2.08 1.76 1.43 0.99 0.88 0.92 1.00 1.17
0.18 0.15 0.15 0.15 0.17 0.21 0.26 0.38 0.56 0.75 1.00 1.33 1.70 1.96 2.21 2.33 2.16 2.10 2.11 2.10 2.07 2.12 2.23 2.22 2.21 2.19 2.12 2.19 2.26 2.32 2.73 2.93 2.64 2.30 1.91 1.70 1.66 1.73 1.45 1.06 0.99 1.07 1.07
0.23 0.20 0.21 0.22 0.27 0.35 0.43 0.59 0.86 1.16 1.42 1.64 1.83 2.05 2.19 2.22 2.17 2.09 2.07 2.01 1.99 1.97 2.00 2.01 2.10 2.12 2.16 2.22 2.38 2.51 2.78 2.80 2.80 2.62 2.40 2.18 1.86 1.51 1.58 1.52 1.25 1.18 1.08
0.28 0.28 0.30 0.37 0.45 0.52 0.67 0.85 1.05 1.34 1.52 1.63 1.72 1.90 2.04 2.09 2.08 2.05 2.05 2.05 2.02 1.93 1.86 1.83 1.91 2.04 2.19 2.23 2.33 2.49 2.73 2.84 2.92 2.83 2.56 2.47 2.30 2.01 1.88 1.61 1.46 1.46 1.24
0.38 0.38 0.48 0.63 0.70 0.74 0.84 1.00 1.09 1.29 1.40 1.44 1.51 1.63 1.69 1.75 1.78 1.77 1.74 1.68 1.65 1.65 1.69 1.77 1.85 1.99 2.09 2.16 2.28 2.43 2.48 2.60 2.83 2.83 2.66 2.45 2.26 2.24 2.11 1.98 1.66 1.48 1.30
0.54 0.64 0.78 0.88 0.95 0.97 0.94 0.96 1.11 1.16 1.16 1.21 1.19 1.29 1.36 1.42 1.47 1.45 1.44 1.47 1.53 1.56 1.51 1.56 1.64 1.85 2.04 2.12 2.22 2.23 2.21 2.27 2.45 2.44 2.50 2.48 2.22 2.17 2.06 2.03 2.10 1.82 1.62
0.79 1.01 1.18 1.28 1.36 1.29 1.12 0.99 0.98 0.98 0.96 1.06 1.12 1.15 1.21 1.24 1.25 1.27 1.20 1.29 1.35 1.36 1.32 1.36 1.39 1.49 1.71 1.95 2.11 2.07 1.98 1.94 2.10 2.16 2.25 2.38 2.41 2.32 2.21 2.16 2.22 2.16 1.92
1.22 1.48 1.70 1.82 1.79 1.61 1.36 1.10 0.95 0.89 0.87 0.92 1.02 1.09 1.09 1.08 1.05 1.07 0.99 1.04 1.14 1.15 1.14 1.14 1.21 1.35 1.46 1.66 1.89 1.98 1.92 1.89 1.96 2.06 2.19 2.31 2.41 2.46 2.26 2.22 2.18 2.04 1.96
1.65 1.81 1.97 2.01 1.75 1.58 1.34 1.09 0.94 0.94 0.97 1.00 1.02 1.03 0.98 0.96 0.93 0.89 0.84 0.86 0.93 0.93 0.95 1.12 1.18 1.25 1.33 1.53 1.80 1.97 1.98 1.91 1.91 1.88 1.95 2.12 2.21 2.42 2.38 2.29 2.18 2.05 1.89
1.43 1.52 1.60 1.56 1.51 1.46 1.29 1.12 1.03 1.02 1.07 1.10 1.12 1.04 0.96 0.90 0.90 0.85 0.74 0.73 0.70 0.69 0.80 0.93 0.98 1.03 1.08 1.27 1.55 1.75 1.80 1.78 1.70 1.67 1.80 2.01 2.17 2.37 2.47 2.41 2.25 2.16 2.03
1.24 1.24 1.26 1.32 1.35 1.31 1.19 1.16 1.13 1.14 1.14 1.13 1.05 0.97 0.89 0.80 0.76 0.66 0.59 0.64 0.65 0.71 0.82 0.91 0.95 0.99 1.05 1.09 1.19 1.35 1.47 1.47 1.42 1.45 1.51 1.55 1.75 2.03 2.20 2.22 2.23 2.27 2.24
0.99 0.98 1.06 1.15 1.21 1.18 1.14 1.09 1.04 1.09 1.19 1.25 1.16 1.05 0.94 0.84 0.80 0.70 0.61 0.59 0.61 0.68 0.77 0.83 0.90 0.96 1.01 1.02 1.03 1.06 1.13 1.14 1.20 1.26 1.29 1.33 1.39 1.62 1.79 1.88 2.06 2.29 2.31
0.67 0.71 0.77 0.78 0.75 0.71 0.76 0.80 0.85 0.96 1.11 1.25 1.24 1.11 0.94 0.83 0.77 0.73 0.65 0.62 0.61 0.61 0.69 0.75 0.76 0.80 0.89 0.98 1.01 0.89 0.85 0.95 1.06 1.07 1.03 1.05 1.13 1.27 1.39 1.44 1.80 2.15 2.33
0.43 0.42 0.44 0.44 0.43 0.39 0.38 0.40 0.47 0.62 0.87 1.13 1.11 0.92 0.76 0.62 0.58 0.60 0.61 0.60 0.57 0.59 0.63 0.60 0.63 0.72 0.76 0.91 0.91 0.75 0.75 0.80 0.90 0.98 0.95 0.83 0.82 0.87 0.96 1.05 1.22 1.50 1.74
0.31 0.31 0.31 0.30 0.30 0.29 0.29 0.31 0.38 0.50 0.66 0.78 0.76 0.67 0.56 0.53 0.57 0.60 0.55 0.57 0.58 0.57 0.57 0.54 0.54 0.58 0.71 0.76 0.62 0.62 0.66 0.73 0.79 0.86 0.90 0.81 0.70 0.78 0.83 0.93 1.01 1.02 1.09
0.23 0.22 0.22 0.22 0.26 0.27 0.31 0.35 0.39 0.44 0.48 0.51 0.53 0.48 0.46 0.48 0.51 0.52 0.52 0.59 0.65 0.63 0.62 0.63 0.60 0.58 0.64 0.64 0.52 0.55 0.58 0.64 0.69 0.78 0.88 0.92 0.84 0.84 0.95 0.95 0.98 0.93 0.89
0.15 0.14 0.13 0.13 0.16 0.16 0.17 0.18 0.20 0.22 0.23 0.21 0.22 0.24 0.24 0.26 0.29 0.30 0.37 0.48 0.55 0.59 0.63 0.68 0.67 0.60 0.57 0.62 0.53 0.53 0.57 0.62 0.66 0.68 0.76 0.84 0.82 0.96 1.07 1.05 1.18 1.15 1.02
0.11 0.11 0.10 0.11 0.12 0.13 0.12 0.10 0.11 0.11 0.12 0.11 0.12 0.14 0.15 0.15 0.16 0.20 0.25 0.30 0.32 0.38 0.49 0.51 0.53 0.57 0.55 0.71 0.60 0.59 0.60 0.66 0.75 0.78 0.75 0.90 0.91 1.01 0.99 0.97 1.20 1.21 1.08
0.11 0.12 0.11 0.11 0.12 0.13 0.12 0.12 0.12 0.11 0.13 0.16 0.18 0.18 0.17 0.18 0.19 0.20 0.23 0.26 0.27 0.31 0.34 0.38 0.42 0.50 0.58 0.72 0.71 0.74 0.72 0.76 0.88 0.85 0.78 0.73 0.86 0.75 0.83 0.87 0.90 1.12 1.12
0.11 0.11 0.11 0.11 0.12 0.12 0.12 0.13 0.14 0.14 0.14 0.16 0.17 0.19 0.20 0.20 0.20 0.21 0.23 0.26 0.27 0.27 0.29 0.29 0.34 0.40 0.46 0.55 0.62 0.64 0.68 0.77 0.85 0.89 0.77 0.74 0.82 0.67 0.65 0.67 0.78 0.97 1.08
0.08 0.10 0.11 0.11 0.13 0.13 0.12 0.12 0.14 0.15 0.15 0.16 0.17 0.19 0.21 0.21 0.19 0.21 0.24 0.25 0.27 0.29 0.31 0.33 0.37 0.43 0.47 0.51 0.50 0.49 0.53 0.60 0.67 0.70 0.74 0.74 0.71 0.65 0.60 0.60 0.69 0.77 0.87
0.09 0.09 0.11 0.13 0.14 0.14 0.14 0.16 0.16 0.15 0.15 0.17 0.19 0.20 0.20 0.20 0.19 0.20 0.22 0.24 0.27 0.30 0.33 0.38 0.41 0.45 0.48 0.50 0.49 0.53 0.56 0.55 0.56 0.56 0.56 0.58 0.62 0.65 0.62 0.61 0.64 0.71 0.82
0.11 0.14 0.15 0.14 0.14 0.16 0.18 0.21 0.21 0.18 0.16 0.17 0.18 0.17 0.17 0.18 0.19 0.20 0.20 0.21 0.23 0.29 0.38 0.43 0.46 0.45 0.43 0.41 0.43 0.53 0.62 0.69 0.74 0.80 0.71 0.70 0.70 0.68 0.62 0.59 0.60 0.65 0.72
0.13 0.15 0.17 0.17 0.16 0.16 0.18 0.20 0.23 0.24 0.23 0.20 0.17 0.16 0.16 0.17 0.17 0.18 0.19 0.21 0.22 0.28 0.31 0.33 0.34 0.34 0.35 0.36 0.37 0.43 0.54 0.64 0.78 0.94 0.92 0.94 0.95 0.89 0.79 0.69 0.61 0.58 0.60